Theta_e
313 317 321 320 322 324 323 318 317 324 318 311 313 313 312 311 309 309 308 306 305 306 309 308 306 306 306 306 306 306 301 297 297 295 296 295 294 294 293 293 292 292 292 291 290 290 289 289 289 289 289 289 289 290 290 289 289 289 289 288 288 288 287 287 287 287 287 287 287 287 286 286 286 287 287 287 287 286 286 287 287 287 288 288 288 288
314 316 321 326 323 318 318 314 310 312 309 307 310 309 310 310 309 308 305 307 306 306 310 310 308 307 305 306 306 307 306 303 299 298 298 296 295 294 294 293 293 292 291 291 290 288 288 288 288 288 288 288 289 289 289 289 289 289 288 288 288 287 287 287 287 286 286 286 286 286 285 285 286 286 286 286 287 286 287 287 287 287 288 288 287 287
320 319 323 324 316 310 310 308 307 310 308 309 310 309 311 310 311 311 307 308 308 305 310 311 307 307 306 306 306 306 307 305 303 302 301 299 297 296 295 294 293 293 292 292 290 287 287 288 287 287 287 288 289 289 289 288 289 289 289 288 288 287 287 287 286 286 286 286 285 285 285 284 285 285 285 285 285 285 286 286 287 287 287 287 286 286
323 324 319 313 309 309 310 306 308 309 308 311 310 310 313 311 312 317 311 309 308 306 307 308 306 306 307 306 306 306 306 306 305 304 303 301 300 298 296 295 293 293 292 291 290 288 286 287 287 286 287 288 288 289 289 288 288 289 288 288 287 287 287 286 286 286 285 285 285 285 284 284 284 284 284 284 284 284 284 285 286 285 285 285 285 285
323 319 308 306 307 310 312 308 308 309 311 317 313 310 313 312 311 314 312 309 310 309 305 307 310 311 312 309 308 307 304 304 305 304 303 300 299 299 297 296 294 293 292 291 291 288 286 286 286 286 287 287 288 288 289 288 288 288 288 288 287 287 286 286 285 285 285 285 285 284 284 284 284 284 284 283 283 283 283 284 284 284 283 283 283 283
320 310 304 309 308 309 312 311 313 313 314 321 319 312 311 312 310 310 312 310 315 317 307 308 315 316 315 313 312 309 307 308 306 305 306 302 298 298 298 297 295 294 293 291 290 288 286 285 285 286 287 287 288 288 288 288 288 288 288 287 287 287 286 286 285 285 285 284 284 284 284 283 283 283 283 283 283 283 283 283 283 283 283 283 283 283
315 306 307 314 312 310 310 312 316 313 313 318 317 312 309 308 308 310 311 310 317 319 308 308 317 316 314 315 316 314 311 312 309 307 307 303 300 299 297 296 295 293 292 291 290 288 286 285 285 285 286 287 288 288 288 288 288 288 287 287 287 286 286 285 285 284 284 284 284 283 283 283 282 282 282 282 282 282 282 282 283 283 283 283 283 283
311 308 310 313 313 312 311 315 317 312 316 320 313 312 312 309 310 310 308 308 312 312 306 307 312 312 312 312 313 311 310 311 309 308 307 303 302 300 297 296 295 293 292 291 290 288 287 285 284 285 286 287 288 288 288 288 288 288 287 287 286 286 286 285 285 284 284 284 284 283 283 282 282 282 282 281 281 281 281 281 282 282 282 282 282 282
310 312 315 314 315 316 316 320 316 311 317 317 308 308 309 307 310 310 307 307 308 308 310 308 306 310 314 311 307 306 308 312 312 315 313 309 306 301 298 296 295 294 292 290 290 288 287 285 285 286 287 288 288 288 287 287 287 287 287 286 286 286 285 285 285 284 284 284 283 283 282 282 282 281 281 281 280 280 280 280 281 281 281 281 281 280
310 310 313 315 317 316 316 313 308 310 313 309 305 308 310 310 310 309 309 310 311 313 316 312 307 312 317 313 308 305 308 313 316 316 314 312 308 303 300 297 294 293 291 290 289 288 286 285 286 287 287 288 288 287 287 287 286 287 286 286 285 285 285 285 285 285 284 284 283 283 282 281 281 281 280 280 280 280 280 280 280 280 279 280 279 279
309 305 306 312 313 313 313 307 303 308 309 304 307 313 315 314 311 310 311 312 315 318 318 313 308 311 318 315 310 309 312 317 319 316 313 313 311 306 301 297 294 293 291 289 288 286 285 285 286 287 287 287 287 286 286 286 286 286 286 285 285 285 285 285 285 284 284 284 283 282 281 281 280 280 280 279 279 279 279 279 279 279 279 279 279 278
310 307 309 311 309 309 312 309 304 305 305 307 314 317 318 319 317 317 318 315 318 319 318 311 305 307 315 313 310 313 313 312 316 317 315 316 314 308 303 298 294 292 290 288 287 286 285 285 285 285 285 286 286 286 285 285 286 285 285 285 285 285 285 285 284 284 284 283 283 282 281 280 280 279 279 279 279 278 278 278 278 278 278 278 278 278
317 314 311 308 306 308 315 316 308 306 307 309 314 318 319 322 323 324 322 318 320 319 311 306 306 307 310 310 310 312 312 310 312 313 313 313 310 306 303 298 293 291 289 287 286 286 286 286 284 283 284 285 285 285 285 285 285 285 285 285 285 285 285 284 284 284 283 283 282 281 280 280 279 279 278 278 278 278 278 278 277 277 277 277 277 277
320 316 309 308 309 309 313 316 313 313 310 307 313 319 320 323 326 327 322 317 318 318 308 302 307 311 310 312 310 308 309 310 309 309 308 307 303 301 301 298 293 290 288 287 286 286 286 285 284 283 284 284 285 285 285 285 285 285 285 285 285 285 284 284 283 283 283 283 282 281 280 279 278 278 278 277 277 277 277 277 277 277 276 276 276 276
321 319 315 313 313 310 309 311 316 318 310 307 313 317 319 326 329 325 324 320 317 319 311 303 309 316 314 313 311 309 309 308 306 306 302 299 296 296 297 296 293 289 287 286 285 286 285 284 283 283 283 284 285 286 285 285 285 285 285 284 284 284 284 283 283 282 282 282 282 281 280 279 278 277 277 277 277 277 276 276 276 276 276 276 276 276
316 319 317 309 307 307 307 309 312 316 312 309 311 314 317 322 322 318 320 319 315 316 313 307 312 316 311 309 309 311 311 305 303 302 299 297 295 296 296 295 291 288 286 286 285 285 285 283 283 283 283 284 285 286 285 285 285 284 284 284 283 283 283 282 282 282 281 281 281 280 279 278 277 277 277 277 276 276 276 275 275 275 275 275 275 275
316 319 312 304 305 305 302 305 307 312 315 310 308 313 314 312 316 320 318 312 310 314 314 312 313 311 309 310 306 305 307 304 302 301 299 297 295 297 298 294 290 287 286 285 285 285 284 283 282 282 283 284 285 285 285 284 284 284 283 283 283 282 282 282 282 281 280 280 280 279 278 277 277 277 276 276 275 275 275 274 274 275 274 275 275 275
318 318 311 306 311 303 296 300 304 305 309 311 313 314 309 307 312 318 318 315 313 314 315 314 312 309 310 310 305 304 308 308 306 304 300 296 295 297 298 293 289 287 286 285 285 284 284 283 282 282 283 285 285 285 285 284 284 283 283 282 282 282 282 281 281 280 280 279 278 278 278 277 277 276 275 275 275 274 274 274 274 274 274 274 274 274
316 315 314 306 308 303 297 302 307 302 301 308 312 307 307 313 314 312 314 317 316 315 317 316 312 310 310 311 310 310 311 311 310 307 300 297 297 297 295 292 289 287 285 285 285 284 284 283 282 282 283 284 285 284 284 283 283 283 282 282 281 281 281 281 280 279 279 278 277 277 277 277 276 275 274 274 274 273 273 273 273 273 273 273 273 274
313 314 317 305 300 303 302 306 312 307 300 301 303 301 306 313 315 313 312 315 317 314 315 315 312 311 313 317 318 314 313 313 314 311 304 300 299 297 294 292 289 287 286 285 284 284 284 283 281 282 283 284 284 284 283 283 282 282 282 281 281 281 280 280 279 278 278 277 276 276 276 276 275 274 274 273 273 273 272 272 272 272 272 273 273 273
313 314 316 308 300 304 307 308 311 310 304 303 304 305 305 305 309 313 310 310 315 315 315 316 313 311 313 318 319 316 315 315 316 315 309 305 302 296 293 292 289 287 286 285 284 284 284 282 281 282 283 284 284 283 283 282 282 282 281 281 280 280 279 278 278 277 276 275 275 275 276 275 274 274 273 273 272 272 272 272 272 272 272 272 272 272
315 315 315 313 307 307 309 307 305 307 307 306 307 308 306 304 309 313 310 309 310 312 316 317 314 311 311 315 317 316 317 317 317 316 310 309 306 296 291 291 289 287 286 285 284 284 283 282 281 281 282 283 283 282 282 282 281 281 281 280 279 278 278 277 276 275 275 274 275 274 274 274 273 273 273 272 272 271 271 271 271 271 271 271 271 272
317 317 314 314 313 309 305 301 299 302 304 305 307 308 307 306 309 312 312 310 309 310 311 313 314 313 311 315 319 317 317 315 312 310 308 307 303 296 291 289 288 287 286 285 284 284 283 282 281 280 281 282 282 282 282 281 281 280 280 279 278 277 277 276 275 274 274 274 274 273 274 274 273 273 272 271 271 271 271 271 270 270 271 271 271 271
314 316 313 313 316 313 305 300 299 300 301 304 308 307 306 306 308 310 311 311 313 311 309 310 312 311 311 315 314 310 308 304 300 301 304 304 299 294 291 289 288 287 286 285 284 283 283 282 281 280 280 280 281 282 281 281 280 280 279 278 277 276 276 275 274 274 273 273 273 274 274 274 273 272 271 271 270 270 270 270 270 270 270 270 270 270
312 315 315 313 315 316 311 306 305 302 301 305 308 305 305 306 307 308 308 308 311 310 309 310 311 310 310 309 306 303 302 301 299 297 298 299 298 294 291 289 287 286 285 285 284 283 283 283 282 281 280 280 280 281 281 280 280 279 278 277 276 275 275 274 273 273 273 273 274 274 274 273 272 271 270 270 270 270 270 270 270 270 270 270 270 270
313 316 315 312 313 313 311 310 312 309 303 303 306 305 304 305 306 307 308 308 309 309 308 310 310 310 310 308 305 305 304 303 303 299 296 295 295 293 291 289 287 285 285 284 283 283 283 283 283 281 279 280 280 280 280 280 279 278 277 276 275 274 274 273 273 273 273 273 273 273 273 271 271 270 270 269 269 269 269 269 269 269 269 269 268 268
318 318 312 312 312 310 309 309 311 312 308 306 307 306 304 304 304 306 308 309 309 308 308 309 309 309 310 309 308 308 307 306 306 305 302 297 294 292 290 289 287 285 285 284 284 283 283 283 283 281 279 279 280 280 280 279 278 278 276 275 275 274 273 273 273 274 274 273 273 272 271 270 270 269 269 269 269 269 269 269 268 268 267 267 266 266
319 316 310 311 311 310 310 310 311 313 311 308 308 307 305 304 304 306 308 308 308 308 309 309 308 309 309 308 308 308 308 308 307 308 308 304 299 294 291 289 287 286 285 284 284 284 284 283 283 281 279 278 279 279 279 278 278 276 275 274 274 273 273 273 273 274 273 272 271 271 270 269 269 269 269 269 268 268 268 267 267 266 265 265 265 264
314 312 310 311 311 309 310 309 310 311 310 308 309 308 306 304 304 305 306 306 307 309 309 308 308 310 309 308 309 309 308 309 309 309 308 306 301 296 292 290 288 286 285 284 284 284 284 283 283 282 279 278 278 279 278 277 277 275 275 274 273 273 273 273 273 273 272 271 270 270 269 269 268 268 268 268 267 267 266 266 265 264 264 263 263 263
311 311 311 310 310 310 310 309 309 309 308 308 308 307 306 304 303 304 304 305 306 307 307 307 308 309 308 308 309 309 309 309 308 308 307 304 301 297 294 291 289 287 286 285 284 284 284 283 283 281 279 278 278 277 277 276 275 274 274 273 273 273 273 272 272 272 271 270 269 269 268 268 268 268 267 267 266 266 265 264 264 263 262 262 262 263
308 311 313 312 311 311 310 309 310 309 308 308 308 308 307 305 304 303 303 304 305 305 306 306 307 308 307 307 308 308 308 307 307 307 306 304 302 299 295 293 290 288 286 285 284 284 283 283 282 282 280 278 277 277 276 275 274 273 273 272 272 272 272 271 271 270 269 269 268 268 268 267 267 266 266 266 265 264 264 263 262 262 262 262 262 262
308 311 314 314 313 312 311 312 312 310 309 309 309 309 308 307 307 305 305 305 305 305 306 306 307 307 306 306 307 307 307 306 306 306 305 305 304 300 297 294 291 289 287 285 284 284 283 283 282 282 280 277 276 276 276 275 273 272 272 272 272 271 271 271 270 269 268 268 267 267 267 266 266 265 265 265 264 263 262 262 261 261 262 262 262 262
309 310 311 312 312 311 312 313 312 311 311 311 311 310 309 309 308 308 308 307 306 305 306 307 307 307 306 307 307 307 307 307 307 306 305 305 304 300 296 295 293 290 288 286 285 284 283 283 282 280 278 277 276 276 275 274 273 272 271 271 271 271 270 270 269 268 267 267 267 266 265 265 264 264 264 264 263 262 261 261 261 261 261 262 262 263
308 309 310 311 312 311 310 311 311 311 312 313 313 313 312 310 310 309 309 309 308 307 307 307 307 307 307 308 308 308 308 307 307 307 306 305 304 299 295 293 292 290 288 286 285 284 283 282 281 279 277 276 276 275 274 273 272 271 271 271 271 270 270 269 268 267 266 266 266 265 264 264 264 264 263 263 262 261 261 261 261 261 262 262 262 263
308 308 309 311 312 310 307 309 312 313 313 312 314 316 314 312 312 311 309 309 309 308 308 307 307 307 307 307 307 308 307 307 307 306 304 303 302 299 296 293 291 290 288 286 285 284 283 282 280 277 276 275 274 274 273 271 271 271 271 270 270 270 269 268 267 266 266 265 265 264 263 263 263 263 262 262 261 261 260 261 261 261 262 262 263 263
309 307 308 311 312 309 307 310 313 313 311 310 311 312 310 310 311 311 310 310 309 308 309 308 308 307 307 307 307 307 307 306 304 302 301 299 298 298 297 295 292 289 288 286 285 284 283 281 279 276 274 274 273 272 271 270 271 271 270 270 270 268 267 266 266 265 265 264 263 263 263 263 262 262 261 261 260 260 260 260 261 261 262 262 263 263
308 309 308 310 311 311 310 311 311 311 311 311 310 309 308 308 309 310 311 310 309 308 308 308 308 308 307 307 307 307 305 304 303 303 302 299 296 295 295 295 292 290 287 286 284 283 281 279 277 276 274 273 272 271 270 270 270 271 270 269 268 267 266 265 265 264 264 263 263 263 263 263 262 261 261 260 260 260 260 260 261 261 262 262 263 263
306 309 309 310 311 311 311 311 311 312 313 311 309 310 310 310 309 309 310 310 309 309 309 308 308 308 307 307 306 305 303 304 304 304 304 301 295 292 292 292 290 288 287 284 282 279 278 277 275 274 273 272 270 270 270 270 270 270 268 267 266 266 265 264 264 263 263 262 263 263 263 263 262 260 260 260 260 260 260 260 261 261 262 262 262 262
305 307 308 310 310 311 312 312 312 313 313 310 310 312 311 309 307 307 310 311 310 310 311 310 308 307 308 307 304 303 303 304 305 304 304 302 295 290 290 289 287 286 284 281 280 277 275 274 273 272 272 270 269 269 269 269 269 268 267 266 265 264 264 263 263 263 262 263 264 264 264 264 262 260 259 259 260 260 260 261 261 262 262 262 262 262
304 305 306 308 310 311 312 312 312 313 312 311 311 309 305 306 307 309 312 313 311 312 312 310 308 308 307 306 304 302 304 305 305 304 302 298 292 288 288 287 286 284 280 277 277 275 273 273 272 271 270 269 268 268 269 269 268 266 265 265 264 263 263 263 263 262 263 264 264 264 265 264 262 260 259 259 260 260 260 261 261 261 262 262 262 262
305 305 306 307 309 310 311 312 313 312 313 312 309 305 303 305 308 311 313 313 311 313 312 308 307 307 306 304 302 302 303 303 303 300 294 291 289 287 285 284 281 279 277 275 274 273 272 272 271 270 269 268 268 268 268 268 266 265 264 264 263 263 263 263 262 262 263 265 265 265 266 264 261 260 260 260 260 260 260 261 261 261 261 262 262 262
307 307 307 307 309 309 310 312 312 312 313 311 306 302 303 307 310 311 312 312 311 312 312 307 305 306 305 302 300 301 302 301 299 296 291 288 287 285 282 280 278 276 275 274 273 272 271 270 269 269 268 267 267 267 267 266 265 264 263 263 263 263 263 263 262 263 264 266 266 266 267 264 261 260 260 260 260 260 260 261 261 261 261 262 262 262
309 309 308 308 309 309 311 312 312 314 315 309 303 302 303 308 311 310 310 311 311 312 311 307 304 304 303 301 299 299 300 298 296 293 290 286 284 282 280 279 277 275 274 273 272 271 270 269 268 267 266 266 266 266 266 265 265 263 262 262 263 263 263 263 262 264 265 266 266 267 266 263 261 260 260 260 260 260 260 260 261 261 261 262 262 263
312 312 310 310 310 311 312 312 311 314 313 307 305 306 305 305 309 310 310 310 310 310 308 306 304 302 300 301 300 297 296 296 293 291 288 284 282 280 278 277 276 274 273 272 271 270 270 269 268 266 265 265 264 265 265 265 264 262 261 262 264 264 263 263 263 264 265 266 266 267 266 263 261 260 260 260 260 260 260 260 260 261 261 262 263 263
313 313 312 312 311 311 312 312 311 313 310 304 305 310 308 305 306 308 309 310 309 308 305 305 305 301 298 301 302 298 296 295 292 289 287 284 281 279 277 276 275 274 273 271 270 270 269 268 266 265 264 264 263 263 264 264 264 262 261 263 264 264 263 263 264 265 265 266 266 266 264 263 261 260 260 260 260 260 260 260 260 261 261 262 263 264
314 313 313 313 312 311 311 311 311 312 308 303 304 308 308 307 307 306 306 307 307 306 304 304 305 303 299 299 302 301 298 294 290 288 286 283 280 278 277 276 274 273 272 270 269 269 268 267 265 264 264 263 262 262 263 263 263 262 262 263 264 264 263 264 265 265 265 266 266 264 262 261 261 261 260 260 260 260 260 260 260 261 261 263 264 264
314 313 312 312 312 312 312 311 310 310 308 304 304 305 306 307 306 305 304 304 304 305 304 302 304 304 301 299 301 302 298 293 290 288 285 282 279 278 277 276 274 272 271 270 269 268 266 265 264 264 263 263 261 261 262 261 261 262 263 263 263 263 263 264 265 266 265 266 265 262 260 259 260 260 261 260 259 259 260 260 260 261 262 263 264 264
313 312 312 312 312 312 313 311 311 311 309 307 305 305 305 305 304 303 303 302 303 304 302 301 301 302 300 297 298 299 297 292 290 288 285 281 279 278 276 275 273 272 270 269 268 266 265 265 264 264 263 262 261 261 260 260 261 262 262 263 263 263 263 265 265 265 265 265 264 261 258 258 258 259 260 260 259 259 259 260 260 262 262 263 264 265
314 313 312 312 311 312 312 311 311 312 311 310 308 306 306 305 304 303 301 300 301 302 301 300 299 299 298 297 296 297 296 293 290 288 285 282 279 277 276 275 273 271 270 268 266 265 265 265 264 263 263 262 261 260 259 259 260 261 262 263 263 263 264 265 265 265 265 264 262 260 258 257 258 258 258 259 260 260 260 260 261 262 263 263 264 266
315 313 313 313 313 312 312 311 311 312 312 311 309 308 307 306 305 304 302 301 300 300 300 300 298 297 297 296 295 296 296 293 289 287 285 282 280 277 276 274 272 271 269 267 265 265 265 265 264 263 263 261 260 259 259 259 260 261 262 263 263 264 264 265 265 265 264 263 261 258 257 257 258 258 258 258 258 260 261 263 263 262 262 263 265 266
314 313 313 313 313 313 312 311 311 312 312 311 311 310 309 307 306 305 304 302 301 300 299 300 299 297 295 294 294 295 296 293 288 286 285 282 280 277 275 273 272 270 268 266 265 265 265 264 264 263 262 260 259 259 259 259 260 261 262 263 263 264 265 265 265 265 264 262 260 257 257 257 257 257 257 258 257 258 259 261 263 264 264 263 263 264
Wind_Speed
3 0 3 5 7 8 8 7 6 5 6 4 4 4 5 6 7 6 4 5 1 1 9 9 9 13 16 19 16 6 8 11 11 9 10 10 10 11 12 13 14 14 11 12 19 22 24 24 22 21 21 19 19 18 16 14 11 9 8 7 5 3 3 4 6 7 9 10 12 13 13 15 16 14 13 14 15 15 17 19 22 23 24 26 28 29
4 2 7 9 9 7 5 6 6 6 5 3 4 4 5 5 8 8 3 4 2 2 6 7 6 13 16 17 18 8 8 11 11 11 14 13 12 11 13 15 14 10 6 10 16 20 24 24 23 22 21 21 20 20 18 14 11 10 9 8 6 5 4 5 7 8 9 10 11 12 13 15 16 13 13 15 16 16 18 20 22 23 24 26 28 30
3 6 10 8 6 5 5 5 7 5 4 3 2 2 4 4 5 7 4 4 2 2 5 8 8 14 17 17 20 16 11 11 10 13 15 13 13 13 13 14 12 10 9 10 13 17 23 24 23 22 22 22 22 21 18 14 12 11 9 9 7 6 6 6 8 9 10 10 10 12 13 14 14 12 12 15 16 16 19 21 22 23 24 26 27 28
2 7 8 4 7 8 5 4 7 5 2 3 3 2 5 4 2 5 4 5 3 2 4 8 11 14 14 14 17 14 8 8 8 12 13 10 12 14 12 12 12 14 14 13 13 13 18 22 22 22 22 23 22 21 18 15 13 12 10 9 8 7 7 7 8 9 10 11 11 12 14 14 13 12 12 14 15 16 19 22 23 24 24 25 26 27
7 6 2 5 5 6 5 3 5 4 2 3 5 6 6 5 5 6 3 5 4 2 2 6 11 11 7 8 11 5 3 5 6 8 11 9 10 10 8 10 13 15 14 15 14 12 15 19 22 23 24 23 23 22 19 16 14 12 10 9 8 8 8 8 9 10 10 11 12 14 15 15 14 15 15 16 17 19 21 24 25 25 25 25 26 26
8 4 5 5 2 4 6 3 5 7 2 4 5 9 9 8 7 4 5 6 5 4 3 5 7 9 2 3 8 3 3 6 4 6 12 10 8 8 9 10 11 12 12 13 14 13 15 18 21 23 24 23 24 23 19 16 14 12 10 9 9 9 8 8 9 9 10 11 12 14 15 16 16 17 18 18 21 23 24 25 26 26 26 26 26 27
3 2 3 5 4 4 4 4 6 7 4 3 4 6 6 4 1 2 4 4 2 3 4 4 1 9 4 3 8 6 5 9 7 8 13 10 7 9 11 10 10 11 11 11 12 13 15 17 20 22 24 25 25 23 19 17 15 13 10 9 9 9 8 8 8 9 10 11 12 13 14 14 14 15 18 20 21 23 24 25 27 27 27 27 28 29
2 3 4 5 5 4 4 5 6 8 7 3 4 4 5 5 3 2 3 1 4 2 4 1 4 8 9 5 6 4 5 11 12 12 13 10 9 11 11 10 10 12 11 11 12 13 14 18 21 22 25 27 26 22 19 18 16 14 11 10 10 9 7 8 8 8 9 10 12 13 14 15 15 16 19 21 22 23 24 25 27 28 29 29 29 29
3 4 4 5 4 3 6 5 7 10 5 5 5 5 6 6 4 4 4 2 2 3 5 5 5 4 10 5 2 2 4 9 12 14 13 10 10 11 11 10 11 11 10 11 12 13 14 19 23 25 27 27 25 22 19 18 16 14 12 11 10 8 8 8 8 8 8 9 11 13 14 16 17 18 20 22 23 24 23 25 28 29 30 30 30 30
1 4 7 7 5 5 4 2 5 7 3 3 5 5 5 5 4 4 3 1 2 3 7 7 7 4 8 4 3 3 3 8 10 11 10 10 9 8 8 9 9 8 8 10 11 12 16 21 24 25 26 25 24 21 18 17 16 15 13 11 10 9 8 9 8 8 9 9 10 13 14 16 18 20 21 23 24 24 24 26 29 29 30 31 31 31
2 1 3 4 4 5 4 3 1 4 3 4 5 4 5 4 4 4 1 2 2 6 9 7 12 7 6 3 5 4 5 7 8 7 7 9 9 6 6 7 8 8 8 9 9 9 14 20 24 24 23 23 23 20 18 17 16 15 13 12 11 9 9 9 8 8 9 9 11 12 14 16 19 20 22 23 25 25 26 28 30 31 31 32 32 32
3 0 2 2 3 5 6 5 3 3 3 4 4 4 4 4 4 4 4 4 0 7 6 4 8 8 7 6 4 5 7 6 7 6 7 10 10 5 5 5 7 8 8 8 8 8 11 14 17 20 20 21 20 19 18 17 15 13 12 12 11 10 9 8 8 8 9 10 12 13 15 17 19 20 21 23 25 26 26 28 30 31 32 33 34 33
3 4 3 1 2 4 5 4 3 4 3 4 4 4 2 4 4 3 3 1 3 7 3 1 4 5 11 11 8 10 10 8 9 8 9 11 10 4 4 6 6 7 8 8 9 9 10 10 13 16 19 20 20 19 18 16 14 13 12 11 12 11 9 8 8 8 10 11 13 14 15 17 19 20 21 22 25 26 26 27 29 31 32 34 35 35
4 4 0 3 3 3 7 5 2 2 2 5 5 4 3 1 1 3 4 2 5 7 2 3 3 4 9 8 11 16 15 13 11 9 9 9 7 5 5 6 6 7 8 8 9 10 10 10 13 17 19 20 20 19 17 14 13 12 11 10 11 11 9 8 8 8 10 11 13 14 16 17 18 20 21 22 24 26 27 28 29 31 33 34 36 37
3 7 3 6 2 4 8 5 4 5 4 4 5 5 5 5 4 4 4 4 7 6 3 3 2 4 5 4 6 11 11 9 6 7 7 5 5 5 5 6 7 7 8 7 9 10 10 11 15 18 19 20 20 18 15 13 12 11 10 10 11 11 9 7 8 9 11 12 13 14 16 17 18 19 21 22 24 26 27 29 30 32 33 34 37 38
3 8 5 1 1 4 6 2 4 6 2 2 3 4 3 4 5 3 3 4 2 5 4 3 4 6 3 4 6 4 6 7 5 6 7 5 3 3 5 6 6 7 8 8 9 10 10 12 16 18 18 19 18 16 14 12 11 10 10 10 10 10 9 8 9 9 11 12 13 15 16 17 18 19 21 24 25 26 28 29 31 33 34 34 36 37
2 6 3 2 2 1 3 2 2 2 3 2 3 4 4 4 5 2 3 1 4 3 6 2 6 9 3 5 6 2 6 8 6 8 9 6 2 2 6 7 6 7 8 9 10 10 10 12 15 18 18 18 18 16 13 11 10 10 9 10 10 10 9 8 9 10 10 12 14 15 16 18 19 20 22 24 26 27 28 29 30 32 33 34 35 36
3 4 3 3 1 1 1 2 2 1 3 5 3 5 3 2 4 3 1 3 3 3 6 4 9 13 8 6 2 3 6 9 9 10 8 4 3 6 9 8 7 8 8 9 10 9 9 11 15 18 19 19 18 15 12 10 9 9 9 9 10 9 9 8 9 10 10 12 14 16 17 18 20 21 23 24 26 27 28 29 30 30 32 33 34 35
3 3 4 2 2 1 2 2 1 2 2 5 3 3 3 3 2 2 2 2 2 3 7 9 12 13 9 6 4 5 9 9 10 10 7 6 8 10 10 8 8 8 8 9 10 9 9 11 15 18 19 18 16 13 11 9 9 9 9 9 9 9 9 9 9 10 11 12 14 16 18 19 20 22 23 24 26 27 28 30 30 30 32 33 33 34
3 3 4 0 2 1 2 2 5 2 1 2 0 1 1 2 4 3 3 3 3 3 6 11 13 12 7 7 7 10 10 10 10 9 8 10 11 11 10 8 8 9 9 10 10 11 10 11 15 19 19 18 16 13 11 10 9 9 8 9 9 9 9 9 9 10 12 13 15 17 18 20 21 22 24 25 26 27 28 29 30 30 31 32 32 33
3 3 5 1 2 1 4 6 9 10 7 4 3 3 2 1 2 1 2 3 4 4 4 4 11 15 6 7 8 10 9 10 10 9 9 10 12 11 10 9 9 9 10 10 10 11 10 11 15 18 18 17 15 13 12 11 10 9 9 10 9 9 9 9 10 11 13 14 16 18 19 21 22 23 25 26 27 28 28 29 29 30 31 32 32 32
3 3 5 3 2 5 6 3 3 7 8 7 8 8 8 6 4 1 5 3 3 4 5 4 8 18 6 7 7 8 8 10 10 10 9 9 11 11 10 10 10 10 11 11 10 11 10 10 14 16 16 15 15 14 13 12 10 10 10 9 9 9 9 9 11 12 14 15 17 19 20 22 24 25 26 27 27 28 29 29 30 30 31 32 32 32
3 3 4 6 6 6 4 1 1 3 2 3 5 5 7 7 7 7 8 5 3 3 2 4 4 16 7 7 6 7 7 8 8 8 8 8 10 10 9 9 9 9 10 9 9 10 9 10 13 15 15 16 16 15 14 12 11 11 10 8 8 9 9 10 11 13 14 16 18 20 21 24 25 26 26 27 27 28 28 29 30 31 31 32 32 31
2 2 3 6 5 3 3 3 2 2 3 2 6 5 7 8 10 9 6 3 3 4 3 5 5 17 9 4 4 4 3 4 4 6 8 7 7 8 8 8 8 9 8 8 9 8 7 9 12 13 14 15 16 16 14 13 11 10 9 8 8 9 10 10 11 13 15 17 19 21 23 25 26 26 26 26 27 28 29 30 30 30 30 31 31 29
3 3 3 3 5 5 4 3 2 1 2 4 5 4 7 11 9 3 0 2 4 7 8 5 11 20 10 4 5 1 4 5 6 6 7 7 7 7 7 7 8 8 8 9 10 9 8 9 9 10 12 14 16 16 14 12 10 9 8 8 8 9 10 10 11 13 15 17 20 23 24 25 26 26 26 26 27 28 29 29 30 29 29 29 28 27
6 4 5 6 9 10 10 7 4 3 3 3 3 5 10 14 12 6 3 5 9 9 10 9 18 20 14 8 5 2 5 8 8 8 7 8 8 7 6 7 8 9 10 11 11 10 10 9 8 9 11 14 15 15 13 11 10 9 8 8 8 8 9 10 11 14 16 18 21 23 24 25 25 25 26 27 28 28 29 29 29 29 29 28 27 27
4 4 9 13 15 14 15 13 4 7 5 6 9 12 14 15 15 12 8 9 11 9 8 18 23 17 23 27 17 9 10 11 11 11 9 8 9 8 8 9 8 8 10 10 10 10 10 10 9 9 11 13 14 13 12 11 10 9 8 8 7 7 8 10 12 14 17 19 21 23 24 24 25 25 26 27 28 28 28 28 28 29 29 28 27 27
3 6 15 20 21 19 19 17 6 9 8 12 14 16 17 16 16 15 15 18 15 9 12 23 21 16 27 33 22 16 17 14 15 17 12 8 9 8 8 8 8 8 9 9 10 11 12 11 9 8 10 12 13 13 13 12 10 8 8 7 6 6 7 10 12 15 17 19 20 22 23 24 24 25 26 26 27 28 28 29 29 29 29 27 26 26
4 9 16 18 19 19 20 18 9 8 8 9 12 17 19 19 19 19 22 27 23 15 17 23 21 21 30 28 20 19 18 14 17 17 9 7 8 7 7 8 9 10 10 11 12 13 13 11 9 8 9 12 15 15 13 12 10 8 7 6 5 5 7 9 12 15 17 18 19 21 22 23 24 25 25 26 27 27 28 29 30 29 29 28 26 26
4 8 14 14 15 17 19 18 10 7 9 9 12 18 19 17 20 23 26 31 27 21 23 27 27 29 30 22 17 20 17 12 14 15 8 7 8 7 9 10 10 11 12 13 14 13 12 10 9 9 10 13 16 15 13 12 10 8 6 4 3 5 7 10 12 14 16 17 19 20 21 23 23 24 25 26 27 28 29 30 31 31 31 30 29 29
5 7 9 8 9 15 19 15 10 10 11 12 16 24 22 15 16 23 26 25 21 20 25 28 27 28 27 20 16 18 16 12 15 18 16 13 10 9 10 10 10 12 13 13 13 12 11 10 10 10 11 13 15 16 15 13 10 7 4 2 3 5 7 9 11 13 15 17 19 19 20 21 22 23 25 26 27 29 30 31 32 31 31 31 31 31
5 4 2 1 6 15 14 8 7 7 5 9 21 31 27 18 18 23 21 17 17 20 23 22 19 22 23 18 14 16 15 15 19 21 19 16 11 10 11 12 12 13 13 14 13 12 13 13 13 12 12 13 16 17 16 14 10 6 3 1 2 4 6 9 10 12 15 16 17 18 19 20 21 23 25 26 28 30 31 32 31 31 32 31 31 31
6 4 3 4 9 13 7 4 6 6 1 10 20 26 25 21 22 22 18 19 23 22 17 16 19 22 20 14 15 19 18 18 19 18 15 14 10 10 12 13 13 13 14 14 14 14 15 15 13 13 14 16 19 19 17 14 10 7 3 1 1 4 6 8 10 12 15 15 16 17 18 19 21 23 25 27 29 30 30 31 30 30 31 31 32 33
5 7 6 6 8 9 3 5 6 4 11 14 8 7 13 19 22 21 21 27 30 22 16 19 23 23 19 15 18 21 21 21 19 13 9 10 8 9 12 13 13 13 13 12 13 14 14 12 11 14 18 20 20 19 16 12 9 7 4 2 1 3 5 7 10 12 13 14 15 16 16 18 21 23 25 27 28 29 29 30 30 30 30 31 31 31
7 8 6 4 5 3 2 4 3 11 17 11 6 1 9 12 14 17 22 31 32 25 21 24 25 24 22 21 21 21 22 22 17 10 7 9 10 10 11 12 13 13 11 12 13 14 14 12 12 15 18 21 22 19 15 12 9 7 5 2 1 2 4 7 10 11 12 13 14 15 17 20 22 24 26 27 28 29 28 28 29 29 29 29 28 26
8 7 4 4 3 1 2 6 10 13 11 12 16 11 6 4 3 8 16 25 28 25 21 20 22 24 24 24 22 20 16 14 12 9 8 11 12 12 12 13 13 13 13 14 15 15 16 17 18 19 21 24 22 18 15 12 10 7 5 3 1 1 3 6 9 10 12 13 14 15 18 21 22 24 26 27 28 28 28 28 29 29 29 27 26 25
9 8 5 6 6 6 8 10 11 12 12 17 24 16 5 5 6 7 11 21 27 25 17 14 20 25 23 23 22 14 5 6 11 13 11 12 13 13 14 12 11 12 13 12 13 15 18 21 23 25 27 25 22 18 15 13 10 7 5 4 2 2 3 6 7 9 11 13 14 17 19 21 22 23 25 26 27 27 28 28 28 28 27 26 27 27
13 11 9 9 9 8 10 10 10 12 13 19 25 15 4 9 11 9 7 18 29 21 11 15 22 25 22 21 15 5 3 2 11 15 10 9 11 12 11 7 6 8 9 11 12 16 21 25 27 29 29 25 20 17 15 12 10 8 6 5 3 3 4 4 6 8 11 13 15 17 19 20 21 22 23 25 26 27 27 28 28 27 26 27 28 28
13 9 9 10 9 9 11 11 11 12 13 16 18 8 4 7 8 8 4 18 22 8 14 18 22 20 19 16 8 6 5 3 11 13 6 6 9 10 8 6 6 8 10 15 19 23 27 30 30 29 27 24 19 17 15 12 10 9 7 5 4 4 4 4 5 8 11 13 15 17 18 19 20 20 21 23 25 26 27 27 27 27 27 27 27 28
8 7 8 11 12 13 13 12 10 8 9 13 10 3 5 8 13 10 8 17 9 8 15 17 18 16 15 11 7 8 7 9 11 9 3 6 6 6 8 8 9 10 11 14 23 31 33 33 31 26 23 22 20 17 16 13 11 10 8 6 6 6 4 3 6 8 11 14 15 17 18 18 19 20 21 22 24 25 25 26 27 28 28 28 27 28
5 7 9 11 14 15 14 14 11 6 9 13 8 8 9 9 10 8 15 10 0 5 10 13 15 15 12 9 8 8 11 12 7 2 3 6 7 6 7 8 9 12 15 19 27 34 33 30 28 24 21 21 21 19 16 14 13 11 9 8 8 5 1 4 6 9 11 14 15 16 17 17 18 19 20 21 23 24 25 25 27 28 29 29 28 28
4 5 6 9 12 12 12 14 11 8 11 12 8 11 10 7 7 15 14 3 2 5 8 10 12 12 10 11 11 11 10 8 5 4 5 7 8 8 8 10 10 11 17 22 27 32 31 25 23 22 20 20 21 19 17 15 14 12 10 9 7 2 3 5 7 10 12 13 15 16 16 17 18 19 20 21 22 24 26 26 25 27 28 28 28 28
9 6 5 8 9 8 9 9 8 9 12 12 12 7 7 11 15 18 13 7 8 8 8 8 10 9 10 11 13 11 7 5 5 6 6 7 9 8 7 9 9 9 13 16 20 28 30 23 18 19 21 21 21 19 17 16 14 13 12 8 4 2 3 5 7 10 12 13 15 15 15 17 18 19 19 21 22 23 25 26 25 26 27 26 27 26
9 7 6 8 8 7 7 10 11 11 10 16 17 11 14 20 21 20 14 11 12 9 8 8 9 10 11 12 11 10 8 6 6 7 7 8 10 9 7 7 8 8 9 12 19 28 31 24 18 19 20 21 20 18 17 16 15 14 12 7 4 4 3 5 8 10 12 13 14 14 15 17 18 19 19 21 22 23 24 25 25 25 25 25 25 24
13 16 15 11 10 11 12 12 12 10 7 14 17 17 21 25 26 21 13 10 12 9 7 7 9 10 11 12 10 9 9 8 8 9 9 9 9 9 8 8 8 9 11 15 21 28 30 26 24 23 20 19 20 18 16 15 14 14 11 7 5 4 4 6 8 10 12 13 13 13 15 17 18 19 19 20 21 23 24 25 25 24 24 23 22 23
17 20 17 11 9 12 13 11 10 8 8 14 18 20 20 21 21 18 15 14 14 9 7 8 10 10 11 10 9 8 9 10 10 9 9 11 10 9 8 8 8 10 13 16 19 25 29 29 28 25 20 17 18 17 16 14 13 12 10 7 5 4 5 6 8 10 12 12 12 12 15 17 19 20 20 20 21 21 22 23 24 24 23 21 22 26
12 14 13 11 10 11 11 14 18 19 15 15 18 21 21 20 17 14 14 16 15 11 9 10 11 10 11 12 12 12 11 11 12 10 9 11 12 12 12 10 7 8 10 15 21 29 33 29 23 19 17 17 17 17 16 14 13 11 9 7 6 5 5 6 8 10 11 11 11 12 14 16 18 20 22 22 21 21 21 22 22 21 21 22 25 29
10 12 12 12 14 14 15 18 21 21 17 15 17 17 17 19 19 16 14 13 12 9 9 9 9 9 10 12 14 14 12 12 14 13 11 11 12 14 14 11 9 10 12 18 26 33 33 27 20 15 15 17 17 18 17 15 13 11 9 7 6 5 5 7 8 10 11 10 10 12 13 14 16 19 21 23 23 21 20 20 21 20 21 23 26 28
8 10 10 10 13 16 17 17 17 16 13 14 19 21 20 21 21 18 14 11 9 9 9 9 9 11 13 15 15 13 12 13 14 15 14 13 12 13 11 9 9 11 13 20 29 33 32 27 24 20 18 18 20 21 19 16 13 11 9 7 6 5 5 7 9 10 10 9 10 11 13 14 14 16 18 21 24 24 21 17 17 18 21 23 24 24
6 9 9 8 12 14 15 18 19 17 14 15 21 25 25 23 20 15 12 12 13 14 14 13 12 12 12 12 13 13 13 13 13 15 15 14 14 14 11 9 9 8 12 21 28 30 30 30 30 27 23 21 23 23 20 17 14 12 10 8 6 5 5 7 8 9 9 8 9 11 12 14 14 15 16 17 20 24 25 21 17 16 18 22 24 23
12 15 13 12 15 17 20 23 21 17 16 17 21 24 21 17 16 16 16 18 20 19 17 16 16 14 12 10 11 14 15 14 15 16 15 13 14 14 12 12 12 11 15 22 24 23 24 27 29 28 25 23 24 24 21 18 15 12 10 8 6 5 5 6 7 8 8 7 8 10 11 12 14 14 15 16 16 18 22 24 24 22 20 21 23 24
Wind_Direction
85 42 243 220 229 233 222 193 180 174 147 144 153 181 227 239 268 262 237 285 354 252 269 253 242 257 264 271 271 231 187 221 230 228 234 223 216 216 215 220 217 218 217 204 207 204 199 197 195 193 192 193 194 191 191 191 195 198 200 210 217 233 279 311 323 328 331 337 338 338 336 333 335 337 336 339 343 347 349 350 351 350 348 345 344 344
61 232 237 224 221 215 200 168 132 123 120 112 169 215 264 237 257 273 266 319 350 169 269 283 268 262 259 266 273 249 197 228 222 220 236 224 219 222 216 221 218 213 202 194 209 206 199 197 196 196 195 195 194 191 191 194 198 203 212 222 226 239 269 303 314 318 324 332 333 330 327 326 328 331 332 334 340 342 343 345 345 344 343 341 340 340
8 250 244 223 185 113 90 123 116 115 127 114 147 188 270 252 272 292 316 356 350 175 272 298 289 270 264 262 266 257 234 239 221 214 233 224 218 225 219 221 213 204 201 199 208 204 198 197 196 198 198 198 197 193 192 195 200 207 218 229 234 247 269 295 304 308 315 322 325 322 321 322 320 322 324 328 335 337 338 341 340 339 339 337 337 336
247 257 254 190 139 110 80 92 103 95 121 155 157 188 257 268 298 284 310 344 303 229 274 289 282 268 263 257 261 266 253 248 234 226 236 224 221 228 219 215 207 203 205 202 205 201 197 197 198 200 200 200 199 195 195 197 202 211 220 232 240 253 272 289 297 302 306 314 320 319 320 322 320 319 319 324 331 331 331 335 337 336 335 333 332 332
237 244 164 109 118 126 124 121 129 145 251 252 205 207 242 255 237 239 293 329 316 321 322 307 294 274 252 241 255 294 343 273 250 246 253 234 227 237 226 213 208 207 204 201 201 195 193 197 199 201 200 200 199 197 199 202 206 214 222 234 245 256 272 286 294 298 302 310 316 319 323 327 329 327 326 326 328 328 329 332 332 331 329 327 325 325
259 240 132 121 101 119 148 191 190 174 208 297 236 214 228 241 249 274 336 347 348 330 330 9 325 287 259 219 254 289 340 283 251 245 258 247 224 228 229 221 211 208 206 201 198 192 193 195 196 201 201 199 200 200 201 205 208 215 225 235 246 255 271 287 294 296 300 306 313 319 324 327 328 326 326 327 326 326 328 329 328 326 325 323 321 321
267 1 88 138 143 134 172 237 232 170 138 298 256 206 208 201 232 316 2 357 308 263 302 47 332 275 272 196 248 259 276 278 264 246 257 256 231 222 228 224 209 206 204 198 196 192 192 191 192 198 199 198 200 201 201 205 209 217 230 239 246 254 274 292 296 294 296 302 310 316 318 319 317 313 316 322 320 319 321 323 323 322 321 321 320 319
155 69 55 104 113 136 190 249 226 155 129 243 237 127 121 119 152 175 93 339 247 268 304 204 172 274 277 239 253 252 245 273 274 265 264 256 237 230 229 223 210 206 199 194 195 192 193 192 192 195 196 199 200 199 201 206 211 218 231 244 247 254 282 299 294 290 294 301 308 312 314 315 314 310 312 316 315 314 316 317 318 318 317 318 317 316
124 153 175 137 113 176 207 229 196 158 147 238 201 124 108 116 148 146 120 218 273 358 296 223 153 277 273 250 328 22 208 255 266 262 264 258 244 234 229 222 212 207 197 194 196 193 194 194 194 194 195 199 199 199 205 208 212 220 232 249 251 256 286 298 290 287 293 300 305 309 312 313 316 315 314 314 312 313 315 314 315 315 314 314 313 312
96 196 191 148 154 214 211 225 190 164 181 205 145 109 74 74 85 90 111 176 31 324 266 222 168 233 275 228 121 77 204 237 250 255 261 263 256 237 227 223 209 200 196 197 198 194 195 194 193 195 196 198 199 202 208 211 215 222 235 252 254 259 286 294 286 285 292 301 305 308 312 313 315 317 315 312 310 313 315 314 313 313 312 311 309 309
331 259 181 152 181 191 142 93 91 123 141 139 108 65 32 37 49 52 54 73 40 276 268 227 182 191 285 251 160 172 211 205 215 247 265 270 270 251 226 219 200 196 196 195 197 191 191 192 192 195 197 198 200 205 212 215 218 225 239 253 255 265 285 289 285 286 293 304 308 311 315 314 315 316 313 310 310 314 316 313 312 312 310 309 307 306
342 345 215 227 163 129 100 77 45 60 100 109 88 53 11 338 11 20 356 42 59 255 271 243 184 185 247 248 195 231 253 213 196 226 249 259 270 256 218 215 200 197 195 188 189 185 184 189 191 194 197 201 204 209 215 217 220 229 242 252 255 268 285 287 285 289 297 307 313 317 319 317 316 314 310 308 309 312 313 310 310 310 308 306 305 305
302 225 230 253 170 139 111 83 14 359 53 96 94 77 42 325 352 346 313 53 224 251 263 172 167 216 248 246 231 241 254 240 219 222 236 254 271 264 210 215 205 194 192 187 187 187 187 189 188 190 197 203 207 211 213 215 220 231 242 247 256 272 287 291 290 297 304 312 318 321 320 318 315 312 309 309 308 309 309 307 306 305 304 303 303 303
292 291 123 164 246 173 151 159 220 265 138 145 147 132 144 139 21 275 276 278 268 272 249 164 156 259 270 261 230 227 234 237 234 234 238 255 271 260 224 212 203 197 193 189 191 192 193 192 188 190 196 203 206 208 209 211 220 232 240 244 260 276 289 295 297 306 311 317 322 321 319 317 314 312 310 308 308 308 307 305 303 301 300 300 301 302
246 288 217 178 235 179 178 195 167 141 145 173 155 138 157 155 172 227 234 246 277 294 251 186 185 236 260 280 220 213 233 246 253 258 256 270 262 238 230 212 202 200 193 192 197 197 198 193 189 191 196 201 203 204 205 210 222 232 238 246 266 282 291 297 303 312 317 319 321 319 317 315 313 311 310 308 308 307 306 304 301 299 299 299 300 301
213 265 251 192 340 162 179 219 108 113 134 210 128 117 180 183 170 210 218 201 267 316 276 199 222 230 217 266 244 212 258 263 267 272 265 271 260 213 226 220 205 200 194 196 199 199 200 195 192 194 197 201 202 202 205 213 224 231 240 255 271 283 291 301 308 314 318 317 317 317 315 315 314 312 312 311 309 307 305 302 300 299 300 300 301 301
192 273 289 46 350 145 164 197 117 134 182 169 135 175 215 184 132 142 268 11 61 300 273 226 253 273 301 277 249 185 257 258 255 258 251 252 252 220 235 225 204 203 197 198 200 199 198 195 196 197 197 201 202 203 208 214 224 231 244 262 274 283 291 301 307 311 314 315 314 315 315 316 316 315 314 311 309 307 304 302 300 301 301 301 301 301
187 258 260 132 213 272 149 151 63 38 135 130 183 212 198 126 94 102 247 340 30 258 273 271 262 277 287 282 287 133 234 253 251 248 243 240 228 234 242 228 207 206 197 199 203 199 197 196 197 198 200 204 203 204 210 213 221 232 247 264 274 283 289 296 303 305 310 312 311 313 316 317 317 317 314 309 307 305 304 303 303 303 302 302 303 302
161 236 270 121 185 277 41 113 118 346 93 132 202 218 119 142 166 110 154 245 258 236 275 280 278 277 255 239 256 220 217 232 244 242 230 224 225 231 240 227 207 203 196 200 201 197 200 198 196 196 199 203 203 204 209 210 218 232 247 260 269 277 282 290 297 303 308 309 309 312 315 318 318 316 312 308 307 306 305 305 306 305 304 303 304 303
133 200 261 302 233 259 54 171 190 203 59 72 294 322 38 162 173 166 155 177 199 213 270 288 292 282 228 184 231 234 209 203 225 235 223 222 226 226 230 221 204 200 201 202 201 199 200 198 196 196 197 199 200 202 205 208 219 232 245 253 260 268 275 286 296 302 307 309 311 315 318 320 318 314 311 310 309 308 307 308 308 307 306 305 304 302
113 197 230 263 334 205 189 210 196 182 166 151 181 202 231 171 119 220 222 139 148 196 240 277 284 276 238 155 209 225 202 196 208 220 218 219 227 227 223 215 203 202 205 202 200 198 195 195 196 196 197 196 194 197 201 209 221 232 241 246 255 267 276 289 299 303 306 310 315 318 320 319 316 314 314 314 313 311 310 310 309 308 307 305 303 303
157 196 207 192 235 217 215 233 193 183 172 175 194 195 192 173 124 208 248 213 158 201 209 176 265 275 260 142 194 208 189 200 205 212 218 217 225 227 222 215 204 202 208 203 198 195 192 193 192 191 192 188 188 195 202 211 223 231 238 245 258 272 283 296 303 304 308 315 319 319 319 317 317 318 318 317 315 313 312 312 311 310 308 305 304 304
126 119 208 226 232 229 246 353 145 191 148 182 218 196 180 171 158 194 230 225 170 210 206 112 263 271 255 139 176 192 186 208 205 199 211 219 224 225 221 217 209 207 209 200 194 194 191 189 185 184 185 183 189 197 203 213 224 230 240 252 266 279 291 299 303 309 316 321 321 320 320 321 322 322 319 317 315 314 313 313 312 312 309 306 306 306
95 114 213 253 283 320 345 17 53 51 67 233 240 192 176 196 197 206 221 186 166 209 178 98 255 260 256 129 161 205 213 241 222 194 208 222 228 229 222 214 209 209 204 193 193 193 184 182 181 182 181 181 188 197 204 215 225 233 246 258 271 284 294 301 309 318 323 323 322 324 325 325 324 321 318 316 314 314 314 314 313 311 310 308 306 304
184 168 174 247 292 305 311 335 342 322 181 221 239 189 194 215 210 215 347 150 217 210 164 147 247 253 259 101 122 226 284 264 243 215 215 227 230 227 220 213 207 202 195 193 193 187 183 185 185 182 180 180 188 197 204 214 225 235 246 260 275 286 296 310 321 324 325 326 327 328 328 325 323 320 317 316 315 315 315 314 312 311 310 309 305 303
179 180 171 206 235 243 247 247 234 209 188 219 246 201 206 213 201 203 233 216 228 211 164 195 241 255 273 265 207 209 262 257 249 229 220 231 236 227 214 209 204 198 198 198 194 189 189 190 187 180 178 182 189 196 203 213 224 234 247 262 275 290 305 320 327 328 330 332 330 328 326 323 321 317 316 317 316 316 314 313 312 311 311 310 307 305
155 191 198 213 225 229 240 245 197 124 149 203 217 212 212 212 204 210 233 232 230 225 210 229 240 260 275 267 258 255 256 260 265 259 246 235 232 226 218 212 204 200 201 199 193 189 190 191 187 179 177 182 187 194 204 215 222 232 250 263 277 298 316 327 332 333 334 333 329 325 323 320 318 316 318 318 316 315 314 313 313 313 313 312 310 307
127 221 220 224 231 233 244 250 198 141 186 208 209 217 218 212 204 206 226 235 233 231 240 243 243 250 260 261 264 266 263 265 271 271 264 246 230 218 211 207 200 201 202 199 197 195 194 193 185 176 174 176 184 195 205 213 220 231 249 265 285 310 327 334 334 334 333 330 325 322 319 317 317 318 319 317 315 315 315 316 317 317 316 315 312 309
161 233 232 230 239 242 249 252 213 170 214 216 207 220 221 211 205 207 224 234 231 228 245 253 250 246 251 257 263 264 263 264 270 275 272 244 230 206 196 201 199 201 202 201 203 200 197 192 178 170 173 176 185 193 197 204 215 228 246 266 295 323 339 337 333 331 329 326 321 318 317 317 319 320 318 317 317 319 320 321 321 320 319 317 314 309
176 237 240 238 250 250 249 250 223 194 236 243 234 235 227 212 208 213 225 233 233 234 246 254 256 255 256 258 261 265 268 267 274 283 277 242 227 205 204 210 205 205 206 205 207 202 195 187 174 168 173 180 186 187 188 197 207 222 244 274 314 337 342 333 328 328 326 320 316 316 318 320 319 318 317 319 322 325 326 325 324 323 321 319 315 311
209 233 240 240 254 253 250 249 226 212 232 246 253 251 239 216 215 225 230 236 240 241 245 252 259 262 262 262 263 269 277 278 275 275 269 259 242 217 215 217 210 209 210 207 205 197 185 177 173 176 181 183 181 180 185 192 199 215 238 280 328 336 335 326 325 326 320 314 314 317 320 319 316 317 321 326 329 329 328 327 325 324 321 319 317 314
202 225 255 192 241 253 253 238 207 202 220 247 253 253 244 223 223 234 235 234 235 239 245 252 256 258 262 269 271 269 269 267 266 266 266 265 250 220 220 224 215 212 213 207 199 189 182 181 182 183 180 175 174 178 183 185 189 202 212 231 324 324 322 323 326 322 312 311 316 320 318 315 316 323 328 332 332 330 329 327 325 324 321 320 319 317
177 194 216 200 236 255 254 156 145 129 165 252 250 247 242 233 232 239 245 242 235 231 236 244 245 250 260 273 275 271 266 259 258 259 260 262 250 218 219 222 215 213 211 202 193 187 185 187 184 178 173 171 173 176 178 181 185 184 174 177 284 311 319 326 325 313 307 313 319 317 314 316 324 331 334 334 333 331 329 327 324 324 322 320 319 318
184 205 212 204 233 251 225 117 108 165 231 247 251 225 226 231 232 233 241 246 242 232 226 238 249 257 263 263 261 264 266 262 262 261 250 244 233 217 221 221 216 216 208 196 191 188 185 183 175 170 169 169 169 170 172 177 177 167 163 183 258 308 325 326 316 306 309 317 317 313 317 327 335 337 336 335 334 331 329 326 324 322 321 320 320 318
187 207 212 207 232 245 130 108 167 226 232 253 316 244 198 213 221 221 234 246 248 242 234 238 249 256 257 257 255 257 263 268 274 274 238 223 220 216 219 219 214 210 199 187 185 183 178 174 166 163 162 161 162 163 165 168 166 161 162 173 233 305 327 315 304 306 314 316 315 319 330 339 341 340 337 336 334 330 327 325 323 321 322 321 319 317
194 198 200 208 209 179 163 194 225 249 269 295 292 265 195 153 184 212 241 253 252 246 236 236 247 251 251 254 254 255 263 280 291 278 232 220 219 210 212 218 211 203 195 189 185 181 177 172 164 159 156 156 158 159 159 162 161 157 158 166 202 289 314 301 299 310 315 313 319 332 341 344 343 340 338 336 332 329 325 323 322 322 323 321 318 316
204 202 209 223 212 215 236 229 240 277 294 280 269 256 182 144 174 197 248 263 261 252 231 223 242 247 247 250 252 256 283 330 301 275 241 220 216 212 217 219 204 195 192 180 170 165 162 160 156 153 151 152 155 156 156 158 158 154 159 170 193 267 286 291 300 309 312 317 330 341 345 346 344 341 339 335 330 325 323 322 322 323 323 320 318 317
213 210 212 228 221 220 242 246 248 259 255 253 260 260 170 172 191 181 217 263 269 259 201 197 231 241 243 247 247 238 71 1 277 271 255 221 210 209 217 214 181 172 164 145 138 138 142 147 148 148 149 147 148 153 155 155 156 155 163 176 196 244 261 280 300 308 318 330 339 343 347 348 347 342 336 331 326 322 321 322 321 321 322 320 316 315
217 220 220 233 236 229 236 242 241 241 243 253 262 265 147 168 161 129 194 259 267 239 163 193 224 231 238 243 219 143 121 222 257 264 251 197 197 198 192 168 134 135 138 140 143 141 141 143 143 143 145 143 143 151 156 154 155 161 171 182 199 228 246 277 313 322 332 341 344 347 352 351 348 343 334 327 324 322 321 322 321 320 320 318 316 314
202 218 222 227 233 233 234 241 244 242 252 263 261 192 152 147 119 118 240 258 252 150 163 196 214 218 227 223 170 150 183 217 245 262 219 158 169 172 162 150 142 139 132 134 141 141 141 142 141 140 142 142 145 154 156 153 158 169 177 187 204 222 243 312 339 342 343 347 350 354 355 353 348 342 334 328 325 324 322 322 322 322 321 319 317 314
186 209 212 218 229 230 230 240 249 244 250 256 233 155 147 127 121 195 242 257 291 160 182 190 203 213 210 181 161 189 212 214 224 250 120 133 130 127 131 128 129 134 133 135 140 141 140 141 141 139 140 144 150 155 156 158 165 173 182 195 210 221 305 354 348 350 353 355 359 358 355 353 349 343 337 333 330 326 324 325 325 324 322 320 317 316
180 194 202 212 225 227 228 239 251 252 244 234 181 146 151 153 207 235 239 263 314 237 202 191 204 208 190 177 189 207 211 200 174 136 140 143 135 133 132 122 115 121 129 136 142 142 140 136 134 134 136 144 152 156 158 162 167 174 187 200 208 199 33 7 356 0 2 4 4 358 353 353 350 345 341 339 336 330 327 329 329 326 324 321 318 317
181 183 198 202 208 220 230 233 240 250 233 187 144 140 186 203 232 244 243 252 251 219 190 205 213 196 183 191 206 214 200 164 152 156 156 150 145 141 134 128 128 130 132 139 148 148 141 134 129 132 138 146 154 158 163 165 167 176 189 197 182 94 34 8 8 10 9 11 6 357 352 352 351 348 346 343 340 335 331 332 332 329 327 323 320 320
173 181 210 204 193 199 214 214 220 237 214 163 158 185 207 209 228 241 235 239 245 220 186 206 212 196 191 196 205 213 198 170 173 169 157 158 156 147 138 133 131 132 135 143 153 151 143 134 128 132 140 149 156 162 166 167 170 177 184 179 132 89 43 20 20 17 15 16 8 356 353 353 351 351 351 348 344 338 335 335 334 330 329 327 324 323
190 200 216 215 197 201 213 218 220 226 193 174 190 213 214 214 227 236 230 232 244 228 186 195 209 200 198 199 198 201 197 188 187 175 164 168 163 147 143 141 136 142 143 141 148 150 145 139 138 137 140 150 160 165 166 167 173 177 172 154 121 93 54 33 28 24 21 18 9 0 356 355 354 354 352 351 348 342 337 336 334 331 330 329 330 329
209 211 221 224 211 218 234 245 242 230 192 189 210 226 226 223 228 231 230 234 239 224 181 193 208 195 191 197 191 196 205 193 180 178 172 166 159 148 143 137 137 147 144 140 146 150 145 140 140 139 138 148 161 165 164 168 176 174 159 142 124 96 62 42 33 29 25 17 11 8 2 357 356 355 352 352 352 348 342 338 334 330 329 331 334 331
222 220 225 225 216 220 234 235 234 231 215 201 215 229 235 237 233 224 224 231 234 221 194 202 209 190 183 191 192 199 205 186 173 177 170 160 162 161 156 151 146 149 151 150 152 151 146 143 141 140 140 147 159 166 166 171 175 167 151 139 124 95 68 53 40 33 28 19 12 11 7 359 355 352 351 352 351 348 346 343 338 332 330 333 334 328
208 210 217 219 218 224 232 230 232 237 228 216 225 234 237 240 237 229 228 235 234 221 206 204 201 184 182 195 200 201 195 180 176 176 169 166 170 167 162 160 153 147 150 152 152 152 151 148 146 143 140 145 158 168 170 171 169 159 148 139 121 98 72 59 49 38 31 22 15 12 7 359 354 352 351 350 349 345 343 342 341 338 336 338 336 330
172 191 195 200 217 231 239 241 246 255 247 231 235 238 236 238 237 230 228 234 233 225 216 206 198 195 195 199 199 193 186 184 182 176 170 170 171 167 164 160 150 145 148 154 157 159 158 155 152 146 141 146 160 168 169 168 164 155 148 140 124 104 78 63 55 45 36 25 17 12 4 356 355 355 353 352 351 350 347 344 341 339 341 346 344 337
164 200 189 192 221 230 231 231 233 240 241 235 236 237 235 236 238 231 221 222 224 219 214 211 212 213 210 204 194 185 186 190 183 174 172 173 173 170 161 148 145 142 144 154 160 162 160 158 155 151 146 152 163 167 167 165 160 154 149 143 128 106 81 67 58 49 40 29 19 12 0 353 355 357 356 355 352 350 351 355 358 355 350 348 347 345
203 212 201 207 227 228 226 226 226 231 237 238 241 242 237 229 230 228 221 220 224 220 213 212 214 215 215 209 196 191 191 186 175 171 174 177 174 168 158 152 154 152 150 154 158 157 156 156 155 152 151 157 165 167 165 161 157 154 150 142 128 108 82 68 62 50 39 29 21 10 356 350 353 356 357 357 353 347 346 350 360 9 8 359 352 349